Погода в Сочи

Погода в Сочи : погода сейчас, прогноз погоды и архив. Всё, что Вы хотите узнать о погоде в Сочи!

Поиск расширенной информации на нашем сайте:

Другие новости

Новости СМИ2

Главная страница сайта

Новости сайта

03.07.2017

Напоминаем, что на нашем специализированном сайте Метеоцентр.Азия вы можете получить высокодетализированные автоматические прогнозы погоды по пунктам России, СНГ и мира в авиационном формате (включающие направление и скорость ветра, видимость, явления погоды, количество и форму облачности, нижнюю и верхнюю границу облачности).


Погода в Сочи - сегодня

Время (UTC), дата Ветер
(°,м/с) 
Видим.   Явления Облачность Т
(°С)
Тd
(°С)
f(%) Тe
(°С)
Pmin
(гПа)
dP
(гПа)
Po
(мм)
O2
(г/м3)
Тmin Tmax R s Состояние
почвы
00 16.02.18 030 (СВ) 4000 м    5/0 средняя 
[Ac trans]
+8.1 +4.1 76 +9  1022.4  0.1  765  299           
03 16.02.18 080 (В) 4000 м    6/0 средняя 
[Ac trans]
+10.9 +2.3 55 +10  1021.8  0.6  765  296  +7.3         
06 16.02.18 070 (В) 20000 м    10/0 средняя, верхняя 
[Ac trans|Ci fib]
+10.5 +3.4 61 +10  1022.3  0.5  765  296           
09 16.02.18 130 (ЮВ) 20000 м    10/0 верхняя 
[Ci fib]
+14.8 +4.3 49 +15  1022.2  -0.1  765  292           
12 16.02.18 250 (З) 20000 м    10/0 верхняя 
[Ci fib]
+15.1 +4.1 48 +16  1021.7  -0.5  765  291           
15 16.02.18 290 (З) 20000 м    10/0 верхняя 
[Ci fib]
+11.9 +4.6 61 +12  1021.1  -0.6  764  294    +16.2       
18 16.02.18 тихо ()   4000 м    10/0 верхняя 
[Ci fib]
+9.1 +4.6 73 +9  1020.6  -0.5  764  297           
21 16.02.18 110 (В) 4000 м    10/0 средняя, верхняя 
[Ac trans|Ci fib]
+7.9 +4.5 79 +9  1019.7  -0.9  763  298           
00 17.02.18 тихо ()   4000 м    10/0 средняя, верхняя 
[Ac trans|Ci fib]
+7.1 +4.3 82 +7  1019.7  -0.1  763  299           
03 17.02.18 060 (СВ) 4000 м    ясно 
+7.1 +2.5 73 +7  1020.1  0.4  764  300  +5.8         
06 17.02.18 040 (СВ) 4000 м    10/0 средняя, верхняя 
[Ac trans|Ci fib]
+10.3 +4 65 +10  1019.8  -0.2  764  296           
09 17.02.18 130 (ЮВ) 20000 м    10/0 средняя, верхняя 
[Ac trans|Ci fib]
+12.1 +6.4 68 +11  1019.6  -0.2  763  294           
12 17.02.18 160 (Ю) 4{10}  10 км    10/8 360 м средняя 
[St|Ac und]
+10.9 +7.8 81 +10  1018.7  -0.9  763  294           
15 17.02.18 120 (ЮВ) 10 км    10/10 300 м 
[St]
+10.1 +7.8 86 +9  1018.4  -0.3  762  295    +14       
18 17.02.18 140 (ЮВ) 4000 м    10/10 900 м 
[Sc]
+9.8 +6.8 82 +9  1019.5  1.1  763  296           
21 17.02.18 120 (ЮВ) 4000 м    10/10 600 м 
[Sc]
+10.1 +7.1 82 +10  1018.9  -0.6  763  295           
00 18.02.18 тихо ()   4000 м    10/10 720 м 
[Sc]
+9.9 +7.4 84 +10  1018.1  -0.8  762  295           
03 18.02.18 050 (СВ) 4000 м    8/8 1200 м 
[Sc]
+8.3 +6.8 90 +9  1018.1  762  297  +7.8         
06 18.02.18 320 (СЗ) 10 км    10/10 1020 м 
[Sc]
+9.1 +4.8 74 +10  1018.2  0.1  762  297           
09 18.02.18 110 (В) 10 км    10/10 1350 м 
[Sc]
+10.6 +7.7 82 +11  1019  0.8  763  295           
12 18.02.18 270 (З) 20000 м    10/4 600 м верхняя 
[Sc|Cs]
+11.1 +7.8 80 +10  1017.5  -1.5  762  294           
15 18.02.18 290 (З) 10 км    10/4 300 м верхняя 
[St|Cs]
+9.5 +7.6 88 +8  1017.8  0.3  762  295    +12.1       
18 18.02.18 270 (З) 4000 м    10/10 360 м 
[Sc]
+9.1 +7.1 87 +8  1019.3  1.5  763  296           
21 18.02.18 280 (З) 4000 м    10/10 450 м 
[St]
+8.1 +5.6 84 +7  1020.1  0.8  764  298           
00 19.02.18 270 (З) 4000 м    10/10 450 м 
[St]
+7.8 +5.8 87 +8  1019.7  -0.4  763  298           
Время (UTC), дата Ветер
(°,м/с) 
Видим.   Явления Облачность Т
(°С)
Тd
(°С)
f(%) Тe
(°С)
Pmin
(гПа)
dP
(гПа)
Po
(мм)
O2
(г/м3)
Тmin Tmax R s Состояние
почвы

Для получения пояснительной информации подведите курсор к названию столбца.

ПОГОДА в Сочи - архив

Всё, что Вы хотите узнать о погоде в Сочи - удобно и подробно!

Выберите нужную дату (начиная с 1 января 2015* года) и нажмите кнопку "Найти".
Будут отображены архивные сводки погоды по пункту Сочи, начиная с указанной даты.


Отображать данные в формате CSV (для использования в таблицах Excel)


Внимание! Наш архив погоды предназначен исключительно для личного некоммерческого использования в познавательных целях. Если Вам необходимы официальные справки о состоянии погоды (для производственных, юридических, коммерческих и т.п. целей), обращайтесь в органы Росгидромета.

*Примечание: данная дата относится к архиву по метеостанциям СССР (Россия, СНГ, Балтия).
Архив по метеостанциям Зарубежной Европы и Азии (кроме Китая) хранится 10 дней, по другим регионам земного шара (Китай, Африка, Америка, Австралия, Океания) - 1 день.

Сочи - район местоположения метеостанции


Название, широта, долгота, высота метеостанции:
Сочи (Адлер) 43.4°ш. 39.9°д. 13 м над ур. моря [Российская Федерация]

Дополнительная информация

В oтличие oт бoльшинства пoгoдных сайтoв мы публикуем пoдрoбную метеoинфoрмацию в детальнoм прoфессиoнальнoм фoрмате.

Характеристики температуры и влажнoсти вoздуха измеряются на высoте 2 м в тени вдали oт зданий и деревьев.
Скoрoсть ветра измеряется на высoте 10 м (на урoвне рoста челoвека скoрoсть ветра ниже в 1.5-2 раза). Если метеoстанция нахoдится в гoрoде или в лесу, тo скoрoсть ветра занижена на 2-4 м/с пo сравнению с oткрытым местoм. Скoрoсть ветра над акватoриями крупных рек и oзёр, а также на вершинах хoлмoв на 2-5 м/с выше, чем в oбычных услoвиях.
Атмoсфернoе давление в разных тoчках местнoсти мoжет значительнo oтличаться oт давления на метеoстанции, в зависимoсти oт услoвий рельефа (при пoдъёме на 10 м давление пoнижается примернo на 1 мм рт.ст.).